| time (UTC) | temp C | wind direction | speed KPH | gust KPH | rain 1hr cm | rain 24hr cm | rain mn cm | humidity % | barometer mb |
| 20260510145035 | 8 | 218 | 1.6 | 4.8 | 0.00 | 0.00 | 0.00 | 51 | 1018.4 |
| 20260510144536 | 7 | 228 | 1.6 | 4.8 | 0.00 | 0.00 | 0.00 | 52 | 1018.4 |
| 20260510144031 | 7 | 135 | 0.0 | 3.2 | 0.00 | 0.00 | 0.00 | 53 | 1018.4 |
| 20260510143530 | 6 | 137 | 0.0 | 3.2 | 0.00 | 0.00 | 0.00 | 53 | 1018.4 |
| 20260510143029 | 5 | 137 | 0.0 | 3.2 | 0.00 | 0.00 | 0.00 | 52 | 1018.5 |
| 20260510142527 | 5 | 207 | 0.0 | 4.8 | 0.00 | 0.00 | 0.00 | 51 | 1018.4 |
| 20260510142025 | 4 | 207 | 0.0 | 4.8 | 0.00 | 0.00 | 0.00 | 50 | 1018.4 |
| 20260510141524 | 3 | 207 | 1.6 | 4.8 | 0.00 | 0.00 | 0.00 | 44 | 1018.5 |
| 20260510141023 | 3 | 207 | 1.6 | 4.8 | 0.00 | 0.00 | 0.00 | 42 | 1018.4 |
| 20260510140520 | 2 | 207 | 1.6 | 4.8 | 0.00 | 0.00 | 0.00 | 40 | 1018.3 |
| 20260510140019 | 2 | 249 | 1.6 | 4.8 | 0.00 | 0.00 | 0.00 | 41 | 1018.3 |
| 20260510135521 | 2 | 215 | 0.0 | 0.0 | 0.00 | 0.00 | 0.00 | 38 | 1018.2 |
| 20260510135021 | 1 | 215 | 0.0 | 0.0 | 0.00 | 0.00 | 0.00 | 35 | 1018.2 |
| 20260510134516 | 1 | 217 | 0.0 | 0.0 | 0.00 | 0.00 | 0.00 | 34 | 1018.1 |
| 20260510134014 | 0 | 217 | 0.0 | 0.0 | 0.00 | 0.00 | 0.00 | 34 | 1018.1 |
| 20260510133512 | 0 | 215 | 0.0 | 0.0 | 0.00 | 0.00 | 0.00 | 34 | 1017.9 |
| 20260510133011 | 0 | 215 | 0.0 | 0.0 | 0.00 | 0.00 | 0.00 | 32 | 1017.9 |
| 20260510132510 | -1 | 215 | 0.0 | 0.0 | 0.00 | 0.00 | 0.00 | 31 | 1017.9 |
| 20260510132009 | -1 | 215 | 0.0 | 0.0 | 0.00 | 0.00 | 0.00 | 25 | 1017.8 |
| 20260510131509 | -1 | 215 | 0.0 | 0.0 | 0.00 | 0.00 | 0.00 | 23 | 1017.6 |
| 20260510131006 | -2 | 215 | 0.0 | 0.0 | 0.00 | 0.00 | 0.00 | 30 | 1017.5 |
| 20260510130505 | -2 | 215 | 0.0 | 0.0 | 0.00 | 0.00 | 0.00 | 34 | 1017.6 |
| 20260510130003 | -2 | 215 | 0.0 | 1.6 | 0.00 | 0.00 | 0.00 | 39 | 1017.4 |
| 20260510125501 | -2 | 215 | 0.0 | 6.4 | 0.00 | 0.00 | 0.00 | 37 | 1017.2 |
| 20260510125100 | -2 | 215 | 1.6 | 6.4 | 0.00 | 0.00 | 0.00 | 34 | 1017.2 |
| 20260510124606 | -1 | 215 | 1.6 | 4.8 | 0.00 | 0.00 | 0.00 | 27 | 1017.1 |
| 20260510124057 | -1 | 215 | 3.2 | 4.8 | 0.00 | 0.00 | 0.00 | 21 | 1017.0 |
| 20260510123556 | -1 | 215 | 0.0 | 0.0 | 0.00 | 0.00 | 0.00 | 15 | 1016.9 |
| 20260510123059 | -1 | 215 | 0.0 | 0.0 | 0.00 | 0.00 | 0.00 | 15 | 1016.9 |
| 20260510122556 | -2 | 215 | 0.0 | 0.0 | 0.00 | 0.00 | 0.00 | 16 | 1016.8 |
| 20260510122051 | -2 | 215 | 0.0 | 3.2 | 0.00 | 0.00 | 0.00 | 18 | 1016.7 |
| 20260510121551 | -2 | 215 | 0.0 | 3.2 | 0.00 | 0.00 | 0.00 | 25 | 1016.7 |
| 20260510121048 | -3 | 215 | 0.0 | 0.0 | 0.00 | 0.00 | 0.00 | 45 | 1016.6 |
| 20260510120551 | -3 | 215 | 0.0 | 4.8 | 0.00 | 0.00 | 0.00 | 47 | 1016.6 |
| 20260510120045 | -2 | 215 | 1.6 | 4.8 | 0.00 | 0.00 | 0.00 | 47 | 1016.6 |
| 20260510115544 | -2 | 215 | 0.0 | 3.2 | 0.00 | 0.00 | 0.00 | 45 | 1016.5 |
| 20260510115043 | -1 | 215 | 0.0 | 0.0 | 0.00 | 0.00 | 0.00 | 43 | 1016.4 |
| 20260510114550 | -1 | 215 | 0.0 | 0.0 | 0.00 | 0.00 | 0.00 | 40 | 1016.3 |
| 20260510114040 | 0 | 215 | 0.0 | 1.6 | 0.00 | 0.00 | 0.00 | 29 | 1016.4 |
| 20260510113538 | 0 | 215 | 0.0 | 0.0 | 0.00 | 0.00 | 0.00 | 19 | 1016.3 |
| 20260510113037 | 0 | 215 | 0.0 | 1.6 | 0.00 | 0.00 | 0.00 | 19 | 1016.2 |
| 20260510112538 | 0 | 215 | 0.0 | 4.8 | 0.00 | 0.00 | 0.00 | 15 | 1016.2 |
| 20260510112034 | 0 | 215 | 0.0 | 4.8 | 0.00 | 0.00 | 0.00 | 13 | 1016.1 |
| 20260510111537 | 0 | 215 | 3.2 | 4.8 | 0.00 | 0.00 | 0.00 | 7 | 1016.1 |
| 20260510111030 | 0 | 215 | 1.6 | 3.2 | 0.00 | 0.00 | 0.00 | 4 | 1016.1 |
| 20260510110532 | -1 | 215 | 1.6 | 3.2 | 0.00 | 0.00 | 0.00 | 8 | 1016.0 |
| 20260510110033 | -2 | 215 | 0.0 | 3.2 | 0.00 | 0.00 | 0.00 | 37 | 1016.0 |
| 20260510105527 | -2 | 215 | 0.0 | 0.0 | 0.00 | 0.00 | 0.00 | 43 | 1015.8 |
| 20260510105025 | -1 | 215 | 0.0 | 0.0 | 0.00 | 0.00 | 0.00 | 42 | 1015.8 |
| 20260510104524 | -1 | 215 | 0.0 | 0.0 | 0.00 | 0.00 | 0.00 | 36 | 1015.7 |
| 20260510104022 | 0 | 215 | 0.0 | 0.0 | 0.00 | 0.00 | 0.00 | 27 | 1015.6 |
| 20260510103520 | 0 | 215 | 0.0 | 0.0 | 0.00 | 0.00 | 0.00 | 15 | 1015.6 |
| 20260510103019 | 0 | 215 | 0.0 | 3.2 | 0.00 | 0.00 | 0.00 | 18 | 1015.5 |
| 20260510102518 | 0 | 215 | 0.0 | 3.2 | 0.00 | 0.00 | 0.00 | 20 | 1015.5 |
| 20260510102019 | 0 | 215 | 0.0 | 1.6 | 0.00 | 0.00 | 0.00 | 21 | 1015.5 |
| 20260510101515 | 0 | 215 | 0.0 | 1.6 | 0.00 | 0.00 | 0.00 | 20 | 1015.5 |
| 20260510101013 | 0 | 215 | 0.0 | 6.4 | 0.00 | 0.00 | 0.00 | 23 | 1015.3 |
| 20260510100512 | 0 | 215 | 0.0 | 6.4 | 0.00 | 0.00 | 0.00 | 35 | 1015.2 |
| 20260510100010 | 0 | 215 | 3.2 | 4.8 | 0.00 | 0.00 | 0.00 | 33 | 1015.1 |
| 20260510095514 | 0 | 215 | 0.0 | 3.2 | 0.00 | 0.00 | 0.00 | 19 | 1015.1 |
| 20260510095012 | 0 | 215 | 0.0 | 4.8 | 0.00 | 0.00 | 0.00 | 25 | 1015.1 |
| 20260510094518 | 0 | 215 | 1.6 | 4.8 | 0.00 | 0.00 | 0.00 | 41 | 1015.0 |
| 20260510094004 | 0 | 215 | 0.0 | 0.0 | 0.00 | 0.00 | 0.00 | 47 | 1014.9 |
| 20260510093502 | 0 | 215 | 0.0 | 1.6 | 0.00 | 0.00 | 0.00 | 48 | 1014.8 |
| 20260510093121 | 0 | 215 | 0.0 | 4.8 | 0.00 | 0.00 | 0.00 | 49 | 1014.8 |
| 20260510092600 | 0 | 215 | 1.6 | 4.8 | 0.00 | 0.00 | 0.00 | 49 | 1014.7 |
| 20260510092059 | 0 | 215 | 0.0 | 4.8 | 0.00 | 0.00 | 0.00 | 49 | 1014.7 |
| 20260510091559 | 0 | 215 | 1.6 | 4.8 | 0.00 | 0.00 | 0.00 | 50 | 1014.6 |
| 20260510091057 | 1 | 215 | 3.2 | 4.8 | 0.00 | 0.00 | 0.00 | 45 | 1014.6 |
| 20260510090556 | 1 | 215 | 0.0 | 3.2 | 0.00 | 0.00 | 0.00 | 45 | 1014.5 |
| 20260510090055 | 1 | 215 | 0.0 | 0.0 | 0.00 | 0.00 | 0.00 | 53 | 1014.4 |
| 20260510085553 | 1 | 215 | 0.0 | 0.0 | 0.00 | 0.00 | 0.00 | 55 | 1014.3 |
| 20260510085052 | 1 | 215 | 0.0 | 0.0 | 0.00 | 0.00 | 0.00 | 56 | 1014.3 |
| 20260510084550 | 2 | 215 | 0.0 | 0.0 | 0.00 | 0.00 | 0.00 | 55 | 1014.3 |
| 20260510084052 | 2 | 215 | 0.0 | 0.0 | 0.00 | 0.00 | 0.00 | 54 | 1014.2 |
| 20260510083549 | 2 | 215 | 0.0 | 0.0 | 0.00 | 0.00 | 0.00 | 55 | 1014.2 |
| 20260510083055 | 2 | 215 | 0.0 | 0.0 | 0.00 | 0.00 | 0.00 | 55 | 1014.2 |
| 20260510082545 | 3 | 215 | 0.0 | 1.6 | 0.00 | 0.00 | 0.00 | 55 | 1014.1 |
| 20260510082045 | 3 | 215 | 0.0 | 1.6 | 0.00 | 0.00 | 0.00 | 54 | 1014.1 |
| 20260510081544 | 3 | 215 | 0.0 | 1.6 | 0.00 | 0.00 | 0.00 | 54 | 1014.1 |
| 20260510081044 | 3 | 215 | 0.0 | 1.6 | 0.00 | 0.00 | 0.00 | 54 | 1014.1 |
| 20260510080545 | 3 | 215 | 0.0 | 3.2 | 0.00 | 0.00 | 0.00 | 53 | 1014.1 |
| 20260510075543 | 3 | 215 | 0.0 | 4.8 | 0.00 | 0.00 | 0.00 | 53 | 1014.0 |
| 20260510075042 | 3 | 215 | 1.6 | 3.2 | 0.00 | 0.00 | 0.00 | 53 | 1014.0 |
| 20260510074546 | 3 | 215 | 0.0 | 6.4 | 0.00 | 0.00 | 0.00 | 54 | 1013.9 |
| 20260510074041 | 3 | 215 | 1.6 | 6.4 | 0.00 | 0.00 | 0.00 | 53 | 1013.9 |
| 20260510073538 | 3 | 215 | 1.6 | 3.2 | 0.00 | 0.00 | 0.00 | 54 | 1013.8 |
| 20260510073049 | 3 | 215 | 0.0 | 0.0 | 0.00 | 0.00 | 0.00 | 55 | 1013.7 |
| 20260510072537 | 3 | 215 | 0.0 | 3.2 | 0.00 | 0.00 | 0.00 | 55 | 1013.7 |
| 20260510072037 | 3 | 215 | 0.0 | 8.0 | 0.00 | 0.00 | 0.00 | 55 | 1013.7 |
| 20260510071539 | 3 | 215 | 4.8 | 8.0 | 0.00 | 0.00 | 0.00 | 55 | 1013.6 |
| 20260510071034 | 3 | 215 | 4.8 | 8.0 | 0.00 | 0.00 | 0.00 | 55 | 1013.6 |
| 20260510070532 | 3 | 215 | 3.2 | 4.8 | 0.00 | 0.00 | 0.00 | 54 | 1013.5 |
| 20260510070032 | 3 | 215 | 0.0 | 4.8 | 0.00 | 0.00 | 0.00 | 53 | 1013.5 |
| 20260510065531 | 3 | 215 | 0.0 | 4.8 | 0.00 | 0.00 | 0.00 | 52 | 1013.4 |
| 20260510065030 | 3 | 215 | 0.0 | 3.2 | 0.00 | 0.00 | 0.00 | 49 | 1013.3 |
| 20260510064530 | 3 | 215 | 0.0 | 4.8 | 0.00 | 0.00 | 0.00 | 51 | 1013.3 |
| 20260510064028 | 3 | 215 | 1.6 | 4.8 | 0.00 | 0.00 | 0.00 | 54 | 1013.2 |
| 20260510063526 | 3 | 215 | 1.6 | 4.8 | 0.00 | 0.00 | 0.00 | 55 | 1013.1 |
| 20260510063025 | 4 | 215 | 1.6 | 4.8 | 0.00 | 0.00 | 0.00 | 55 | 1013.0 |
| 20260510062523 | 5 | 215 | 0.0 | 1.6 | 0.00 | 0.00 | 0.00 | 54 | 1013.0 |
| 20260510062022 | 5 | 215 | 0.0 | 3.2 | 0.00 | 0.00 | 0.00 | 54 | 1012.8 |
| 20260510061522 | 5 | 215 | 0.0 | 1.6 | 0.00 | 0.00 | 0.00 | 55 | 1012.7 |
| 20260510061021 | 5 | 215 | 0.0 | 3.2 | 0.00 | 0.00 | 0.00 | 55 | 1012.6 |
| 20260510060521 | 5 | 215 | 1.6 | 3.2 | 0.00 | 0.00 | 0.00 | 55 | 1012.6 |
| 20260510060034 | 5 | 215 | 1.6 | 4.8 | 0.00 | 0.00 | 0.00 | 55 | 1012.5 |
| 20260510055618 | 5 | 215 | 3.2 | 4.8 | 0.00 | 0.00 | 0.00 | 56 | 1012.5 |
| 20260510055017 | 5 | 215 | 0.0 | 3.2 | 0.00 | 0.00 | 0.00 | 55 | 1012.4 |
| 20260510054523 | 4 | 215 | 1.6 | 3.2 | 0.00 | 0.00 | 0.00 | 55 | 1012.4 |
| 20260510054021 | 4 | 215 | 1.6 | 3.2 | 0.00 | 0.00 | 0.00 | 56 | 1012.4 |
| 20260510053516 | 4 | 215 | 1.6 | 3.2 | 0.00 | 0.00 | 0.00 | 56 | 1012.4 |
| 20260510053015 | 3 | 215 | 0.0 | 3.2 | 0.00 | 0.00 | 0.00 | 56 | 1012.3 |
| 20260510052516 | 3 | 215 | 1.6 | 3.2 | 0.00 | 0.00 | 0.00 | 56 | 1012.2 |
| 20260510052014 | 3 | 215 | 0.0 | 3.2 | 0.00 | 0.00 | 0.00 | 53 | 1012.2 |
| 20260510051514 | 3 | 215 | 0.0 | 4.8 | 0.00 | 0.00 | 0.00 | 53 | 1012.1 |
| 20260510051012 | 3 | 215 | 1.6 | 4.8 | 0.00 | 0.00 | 0.00 | 54 | 1012.0 |
| 20260510050513 | 3 | 215 | 0.0 | 4.8 | 0.00 | 0.00 | 0.00 | 53 | 1012.0 |
| 20260510050014 | 3 | 215 | 1.6 | 4.8 | 0.00 | 0.00 | 0.00 | 52 | 1011.9 |
| 20260510045512 | 4 | 215 | 1.6 | 4.8 | 0.00 | 0.00 | 0.00 | 52 | 1012.0 |
| 20260510045008 | 5 | 215 | 0.0 | 4.8 | 0.00 | 0.00 | 0.00 | 53 | 1011.8 |
| 20260510044506 | 5 | 215 | 1.6 | 4.8 | 0.00 | 0.00 | 0.00 | 54 | 1011.9 |
| 20260510044005 | 6 | 215 | 0.0 | 4.8 | 0.00 | 0.00 | 0.00 | 53 | 1011.7 |
| 20260510043504 | 6 | 215 | 0.0 | 6.4 | 0.00 | 0.00 | 0.00 | 54 | 1011.7 |
| 20260510043002 | 6 | 215 | 3.2 | 6.4 | 0.00 | 0.00 | 0.00 | 54 | 1011.5 |
| 20260510042502 | 6 | 187 | 1.6 | 6.4 | 0.00 | 0.00 | 0.00 | 53 | 1011.5 |
| 20260510042100 | 6 | 170 | 3.2 | 6.4 | 0.00 | 0.00 | 0.00 | 51 | 1011.5 |
| 20260510041559 | 6 | 170 | 3.2 | 6.4 | 0.00 | 0.00 | 0.00 | 45 | 1011.4 |
| 20260510041058 | 7 | 170 | 0.0 | 4.8 | 0.00 | 0.00 | 0.00 | 44 | 1011.3 |
| 20260510040558 | 7 | 72 | 0.0 | 0.0 | 0.00 | 0.00 | 0.00 | 44 | 1011.2 |
| 20260510040059 | 7 | 72 | 0.0 | 0.0 | 0.00 | 0.00 | 0.00 | 45 | 1011.0 |
| 20260510035556 | 7 | 72 | 0.0 | 0.0 | 0.00 | 0.00 | 0.00 | 41 | 1010.9 |
| 20260510035055 | 8 | 72 | 0.0 | 0.0 | 0.00 | 0.00 | 0.00 | 40 | 1010.9 |
| 20260510034555 | 8 | 72 | 0.0 | 0.0 | 0.00 | 0.00 | 0.00 | 39 | 1010.8 |
| 20260510034055 | 9 | 72 | 0.0 | 0.0 | 0.00 | 0.00 | 0.00 | 40 | 1010.7 |
| 20260510033554 | 10 | 76 | 0.0 | 0.0 | 0.00 | 0.00 | 0.00 | 39 | 1010.6 |
| 20260510033102 | 10 | 74 | 0.0 | 3.2 | 0.00 | 0.00 | 0.00 | 37 | 1010.5 |
| 20260510032555 | 10 | 74 | 1.6 | 9.7 | 0.00 | 0.00 | 0.00 | 37 | 1010.5 |
| 20260510032053 | 11 | 74 | 4.8 | 9.7 | 0.00 | 0.00 | 0.00 | 37 | 1010.3 |
| 20260510031553 | 12 | 305 | 0.0 | 4.8 | 0.00 | 0.00 | 0.00 | 36 | 1010.2 |
| 20260510031052 | 12 | 305 | 1.6 | 4.8 | 0.00 | 0.00 | 0.00 | 35 | 1010.1 |
| 20260510030552 | 12 | 305 | 0.0 | 4.8 | 0.00 | 0.00 | 0.00 | 35 | 1010.0 |
| 20260510025553 | 13 | 294 | 1.6 | 4.8 | 0.00 | 0.00 | 0.00 | 35 | 1009.9 |
| 20260510025054 | 13 | 295 | 1.6 | 6.4 | 0.00 | 0.00 | 0.00 | 38 | 1009.8 |
| 20260510024555 | 13 | 278 | 1.6 | 4.8 | 0.00 | 0.00 | 0.00 | 36 | 1009.8 |
| 20260510024052 | 13 | 296 | 1.6 | 6.4 | 0.00 | 0.00 | 0.00 | 35 | 1009.7 |
| 20260510023551 | 14 | 294 | 3.2 | 6.4 | 0.00 | 0.00 | 0.00 | 34 | 1009.6 |
| 20260510023053 | 15 | 303 | 3.2 | 6.4 | 0.00 | 0.00 | 0.00 | 32 | 1009.5 |
| 20260510022552 | 16 | 280 | 3.2 | 8.0 | 0.00 | 0.00 | 0.00 | 31 | 1009.4 |
| 20260510022053 | 17 | 301 | 4.8 | 8.0 | 0.00 | 0.00 | 0.00 | 27 | 1009.3 |
| 20260510021558 | 19 | 38 | 0.0 | 3.2 | 0.00 | 0.00 | 0.00 | 24 | 1009.3 |
| 20260510021151 | 20 | 38 | 0.0 | 4.8 | 0.00 | 0.00 | 0.00 | 23 | 1009.3 |
| 20260510020552 | 20 | 38 | 1.6 | 6.4 | 0.00 | 0.00 | 0.00 | 23 | 1009.2 |
| 20260510020050 | 20 | 38 | 1.6 | 6.4 | 0.00 | 0.00 | 0.00 | 22 | 1009.2 |
| 20260510015550 | 21 | 57 | 1.6 | 4.8 | 0.00 | 0.00 | 0.00 | 21 | 1009.2 |
| 20260510015050 | 21 | 39 | 1.6 | 8.0 | 0.00 | 0.00 | 0.00 | 21 | 1009.1 |
| 20260510014549 | 21 | 55 | 3.2 | 8.0 | 0.00 | 0.00 | 0.00 | 21 | 1009.1 |
| 20260510014049 | 21 | 22 | 3.2 | 4.8 | 0.00 | 0.00 | 0.00 | 21 | 1009.1 |
| 20260510013549 | 21 | 17 | 1.6 | 8.0 | 0.00 | 0.00 | 0.00 | 21 | 1009.1 |
| 20260510013049 | 21 | 359 | 3.2 | 19.3 | 0.00 | 0.00 | 0.00 | 20 | 1009.1 |
| 20260510012547 | 21 | 45 | 8.0 | 19.3 | 0.00 | 0.00 | 0.00 | 19 | 1009.1 |
| 20260510012050 | 21 | 55 | 4.8 | 14.5 | 0.00 | 0.00 | 0.00 | 21 | 1009.1 |
| 20260510011549 | 21 | 74 | 6.4 | 16.1 | 0.00 | 0.00 | 0.00 | 20 | 1009.1 |
| 20260510011046 | 21 | 72 | 8.0 | 16.1 | 0.00 | 0.00 | 0.00 | 20 | 1009.2 |
| 20260510010547 | 21 | 24 | 6.4 | 17.7 | 0.00 | 0.00 | 0.00 | 20 | 1009.2 |
| 20260510010045 | 21 | 331 | 8.0 | 19.3 | 0.00 | 0.00 | 0.00 | 21 | 1009.1 |
| 20260510005547 | 21 | 11 | 12.9 | 27.4 | 0.00 | 0.00 | 0.00 | 21 | 1009.2 |
| 20260510005046 | 21 | 359 | 14.5 | 25.7 | 0.00 | 0.00 | 0.00 | 21 | 1009.0 |
| 20260510004548 | 21 | 22 | 16.1 | 27.4 | 0.00 | 0.00 | 0.00 | 22 | 1009.1 |
| 20260510004043 | 21 | 28 | 14.5 | 27.4 | 0.00 | 0.00 | 0.00 | 21 | 1009.1 |
| 20260510003542 | 21 | 12 | 16.1 | 27.4 | 0.00 | 0.00 | 0.00 | 22 | 1009.1 |
| 20260510003042 | 21 | 24 | 16.1 | 25.7 | 0.00 | 0.00 | 0.00 | 23 | 1009.1 |
| 20260510002541 | 21 | 359 | 14.5 | 25.7 | 0.00 | 0.00 | 0.00 | 22 | 1009.1 |
| 20260510002040 | 21 | 39 | 16.1 | 25.7 | 0.00 | 0.00 | 0.00 | 23 | 1009.1 |
| 20260510001540 | 21 | 45 | 12.9 | 29.0 | 0.00 | 0.00 | 0.00 | 22 | 1009.1 |
| 20260510001040 | 21 | 359 | 16.1 | 29.0 | 0.00 | 0.00 | 0.00 | 23 | 1009.2 |
| 20260510000541 | 21 | 31 | 16.1 | 27.4 | 0.00 | 0.00 | 0.00 | 23 | 1009.1 |
| 20260510000042 | 21 | 317 | 9.7 | 24.1 | 0.00 | 0.00 | 0.00 | 21 | 1009.1 |
| 20260509235538 | 22 | 20 | 14.5 | 24.1 | 0.00 | 0.00 | 0.00 | 24 | 1009.0 |
| 20260509235037 | 22 | 345 | 14.5 | 27.4 | 0.00 | 0.00 | 0.00 | 24 | 1009.0 |
| 20260509234541 | 22 | 51 | 16.1 | 27.4 | 0.00 | 0.00 | 0.00 | 24 | 1009.0 |
| 20260509234040 | 21 | 52 | 17.7 | 30.6 | 0.00 | 0.00 | 0.00 | 25 | 1009.0 |
| 20260509233539 | 21 | 16 | 16.1 | 30.6 | 0.00 | 0.00 | 0.00 | 24 | 1009.2 |
| 20260509233037 | 21 | 27 | 9.7 | 29.0 | 0.00 | 0.00 | 0.00 | 24 | 1009.2 |
| 20260509232538 | 22 | 1 | 14.5 | 29.0 | 0.00 | 0.00 | 0.00 | 25 | 1009.1 |
| 20260509232035 | 22 | 38 | 14.5 | 25.7 | 0.00 | 0.00 | 0.00 | 25 | 1009.0 |
| 20260509231539 | 22 | 30 | 16.1 | 25.7 | 0.00 | 0.00 | 0.00 | 25 | 1009.0 |
| 20260509231034 | 21 | 51 | 12.9 | 29.0 | 0.00 | 0.00 | 0.00 | 26 | 1009.1 |
| 20260509230534 | 21 | 30 | 14.5 | 27.4 | 0.00 | 0.00 | 0.00 | 25 | 1009.1 |
| 20260509230034 | 22 | 6 | 19.3 | 27.4 | 0.00 | 0.00 | 0.00 | 25 | 1009.2 |
| 20260509225535 | 22 | 40 | 17.7 | 25.7 | 0.00 | 0.00 | 0.00 | 26 | 1009.1 |
| 20260509225033 | 22 | 328 | 11.3 | 19.3 | 0.00 | 0.00 | 0.00 | 25 | 1009.2 |
| 20260509224534 | 22 | 345 | 11.3 | 24.1 | 0.00 | 0.00 | 0.00 | 26 | 1009.2 |
| 20260509224032 | 22 | 315 | 12.9 | 24.1 | 0.00 | 0.00 | 0.00 | 25 | 1009.3 |
| 20260509223531 | 22 | 350 | 12.9 | 29.0 | 0.00 | 0.00 | 0.00 | 26 | 1009.2 |
| 20260509223034 | 22 | 23 | 17.7 | 29.0 | 0.00 | 0.00 | 0.00 | 26 | 1009.2 |
| 20260509222530 | 21 | 20 | 11.3 | 25.7 | 0.00 | 0.00 | 0.00 | 27 | 1009.4 |
| 20260509222029 | 21 | 325 | 11.3 | 25.7 | 0.00 | 0.00 | 0.00 | 25 | 1009.4 |
| 20260509221530 | 21 | 338 | 17.7 | 27.4 | 0.00 | 0.00 | 0.00 | 26 | 1009.4 |
| 20260509221028 | 21 | 311 | 19.3 | 27.4 | 0.00 | 0.00 | 0.00 | 27 | 1009.5 |
| 20260509220531 | 21 | 345 | 11.3 | 24.1 | 0.00 | 0.00 | 0.00 | 28 | 1009.5 |
| 20260509220028 | 21 | 345 | 16.1 | 27.4 | 0.00 | 0.00 | 0.00 | 26 | 1009.7 |
| 20260509215527 | 21 | 31 | 12.9 | 27.4 | 0.00 | 0.00 | 0.00 | 28 | 1009.6 |
| 20260509215027 | 21 | 20 | 11.3 | 22.5 | 0.00 | 0.00 | 0.00 | 28 | 1009.6 |
| 20260509214527 | 21 | 11 | 14.5 | 22.5 | 0.00 | 0.00 | 0.00 | 28 | 1009.6 |
| 20260509214025 | 21 | 37 | 11.3 | 22.5 | 0.00 | 0.00 | 0.00 | 29 | 1009.6 |
| 20260509213525 | 21 | 44 | 12.9 | 22.5 | 0.00 | 0.00 | 0.00 | 29 | 1009.6 |
| 20260509213025 | 21 | 26 | 12.9 | 22.5 | 0.00 | 0.00 | 0.00 | 30 | 1009.6 |
| 20260509212524 | 21 | 2 | 11.3 | 20.9 | 0.00 | 0.00 | 0.00 | 30 | 1009.7 |
| 20260509212027 | 21 | 359 | 6.4 | 20.9 | 0.00 | 0.00 | 0.00 | 30 | 1009.7 |
| 20260509211524 | 21 | 319 | 14.5 | 22.5 | 0.00 | 0.00 | 0.00 | 30 | 1009.7 |
| 20260509211026 | 21 | 20 | 12.9 | 25.7 | 0.00 | 0.00 | 0.00 | 30 | 1009.7 |
| 20260509210527 | 21 | 297 | 12.9 | 25.7 | 0.00 | 0.00 | 0.00 | 30 | 1009.8 |
| 20260509210023 | 21 | 60 | 11.3 | 20.9 | 0.00 | 0.00 | 0.00 | 30 | 1009.8 |
| 20260509205522 | 21 | 9 | 9.7 | 25.7 | 0.00 | 0.00 | 0.00 | 30 | 1010.0 |
| 20260509205022 | 21 | 52 | 12.9 | 25.7 | 0.00 | 0.00 | 0.00 | 30 | 1009.9 |
| 20260509204522 | 21 | 58 | 11.3 | 22.5 | 0.00 | 0.00 | 0.00 | 30 | 1009.8 |
| 20260509204024 | 20 | 48 | 9.7 | 22.5 | 0.00 | 0.00 | 0.00 | 32 | 1009.9 |
| 20260509203521 | 20 | 30 | 14.5 | 25.7 | 0.00 | 0.00 | 0.00 | 32 | 1010.0 |
| 20260509203031 | 20 | 345 | 12.9 | 25.7 | 0.00 | 0.00 | 0.00 | 30 | 1010.0 |
| 20260509202520 | 21 | 12 | 12.9 | 25.7 | 0.00 | 0.00 | 0.00 | 30 | 1010.0 |
| 20260509202021 | 20 | 35 | 16.1 | 25.7 | 0.00 | 0.00 | 0.00 | 31 | 1010.0 |
| 20260509201520 | 20 | 345 | 11.3 | 24.1 | 0.00 | 0.00 | 0.00 | 33 | 1010.0 |
| 20260509201025 | 20 | 41 | 14.5 | 24.1 | 0.00 | 0.00 | 0.00 | 30 | 1010.1 |
| 20260509200520 | 20 | 66 | 12.9 | 25.7 | 0.00 | 0.00 | 0.00 | 31 | 1010.2 |
| 20260509200019 | 20 | 17 | 16.1 | 25.7 | 0.00 | 0.00 | 0.00 | 32 | 1010.2 |
| 20260509195520 | 20 | 355 | 14.5 | 22.5 | 0.00 | 0.00 | 0.00 | 31 | 1010.2 |
| 20260509195019 | 20 | 32 | 8.0 | 30.6 | 0.00 | 0.00 | 0.00 | 32 | 1010.3 |
| 20260509194519 | 20 | 350 | 11.3 | 30.6 | 0.00 | 0.00 | 0.00 | 31 | 1010.4 |
| 20260509194019 | 21 | 89 | 9.7 | 25.7 | 0.00 | 0.00 | 0.00 | 31 | 1010.4 |
| 20260509193520 | 20 | 32 | 11.3 | 22.5 | 0.00 | 0.00 | 0.00 | 31 | 1010.4 |
| 20260509193018 | 20 | 55 | 11.3 | 20.9 | 0.00 | 0.00 | 0.00 | 31 | 1010.6 |
| 20260509192517 | 20 | 345 | 8.0 | 27.4 | 0.00 | 0.00 | 0.00 | 31 | 1010.6 |
| 20260509192017 | 20 | 340 | 17.7 | 27.4 | 0.00 | 0.00 | 0.00 | 29 | 1010.6 |
| 20260509191520 | 20 | 45 | 12.9 | 27.4 | 0.00 | 0.00 | 0.00 | 31 | 1010.4 |
| 20260509191016 | 20 | 45 | 11.3 | 24.1 | 0.00 | 0.00 | 0.00 | 30 | 1010.5 |
| 20260509190514 | 20 | 32 | 14.5 | 24.1 | 0.00 | 0.00 | 0.00 | 30 | 1010.6 |
| 20260509190017 | 20 | 45 | 14.5 | 24.1 | 0.00 | 0.00 | 0.00 | 28 | 1010.7 |
| 20260509185512 | 20 | 51 | 12.9 | 25.7 | 0.00 | 0.00 | 0.00 | 30 | 1010.7 |
| 20260509185012 | 20 | 37 | 14.5 | 25.7 | 0.00 | 0.00 | 0.00 | 28 | 1010.7 |
| 20260509184512 | 19 | 39 | 14.5 | 25.7 | 0.00 | 0.00 | 0.00 | 29 | 1010.8 |
| 20260509184012 | 19 | 22 | 16.1 | 29.0 | 0.00 | 0.00 | 0.00 | 29 | 1010.9 |
| 20260509183510 | 19 | 345 | 19.3 | 29.0 | 0.00 | 0.00 | 0.00 | 28 | 1010.9 |
| 20260509183010 | 19 | 359 | 11.3 | 24.1 | 0.00 | 0.00 | 0.00 | 29 | 1010.9 |
| 20260509182512 | 20 | 29 | 14.5 | 24.1 | 0.00 | 0.00 | 0.00 | 28 | 1010.9 |
| 20260509182010 | 19 | 355 | 12.9 | 25.7 | 0.00 | 0.00 | 0.00 | 29 | 1010.9 |
| 20260509181510 | 20 | 33 | 16.1 | 27.4 | 0.00 | 0.00 | 0.00 | 27 | 1010.9 |
| 20260509181010 | 20 | 22 | 14.5 | 25.7 | 0.00 | 0.00 | 0.00 | 29 | 1010.8 |
| 20260509180509 | 19 | 20 | 9.7 | 20.9 | 0.00 | 0.00 | 0.00 | 29 | 1010.9 |
| 20260509180009 | 18 | 2 | 11.3 | 20.9 | 0.00 | 0.00 | 0.00 | 29 | 1011.0 |
| 20260509175508 | 18 | 355 | 14.5 | 25.7 | 0.00 | 0.00 | 0.00 | 28 | 1011.0 |
| 20260509175007 | 18 | 1 | 14.5 | 25.7 | 0.00 | 0.00 | 0.00 | 27 | 1011.0 |
| 20260509174507 | 19 | 16 | 16.1 | 30.6 | 0.00 | 0.00 | 0.00 | 26 | 1011.0 |
| 20260509174006 | 19 | 51 | 12.9 | 27.4 | 0.00 | 0.00 | 0.00 | 28 | 1011.1 |
| 20260509173504 | 19 | 8 | 11.3 | 27.4 | 0.00 | 0.00 | 0.00 | 29 | 1011.1 |
| 20260509173004 | 18 | 324 | 11.3 | 27.4 | 0.00 | 0.00 | 0.00 | 27 | 1011.2 |
| 20260509172504 | 18 | 5 | 14.5 | 24.1 | 0.00 | 0.00 | 0.00 | 27 | 1011.1 |
| 20260509172003 | 18 | 350 | 17.7 | 24.1 | 0.00 | 0.00 | 0.00 | 29 | 1011.1 |
| 20260509171503 | 18 | 6 | 11.3 | 24.1 | 0.00 | 0.00 | 0.00 | 28 | 1011.1 |
| 20260509171003 | 18 | 359 | 14.5 | 27.4 | 0.00 | 0.00 | 0.00 | 29 | 1011.1 |
| 20260509170501 | 18 | 355 | 17.7 | 27.4 | 0.00 | 0.00 | 0.00 | 30 | 1011.1 |
| 20260509170101 | 18 | 11 | 14.5 | 29.0 | 0.00 | 0.00 | 0.00 | 30 | 1011.0 |
| 20260509165559 | 18 | 17 | 16.1 | 27.4 | 0.00 | 0.00 | 0.00 | 30 | 1011.0 |
| 20260509165058 | 18 | 5 | 14.5 | 24.1 | 0.00 | 0.00 | 0.00 | 31 | 1011.0 |
| 20260509164602 | 17 | 16 | 12.9 | 24.1 | 0.00 | 0.00 | 0.00 | 31 | 1011.0 |
| 20260509164101 | 17 | 5 | 14.5 | 24.1 | 0.00 | 0.00 | 0.00 | 30 | 1011.0 |
| 20260509163556 | 17 | 359 | 16.1 | 25.7 | 0.00 | 0.00 | 0.00 | 29 | 1011.0 |
| 20260509163057 | 17 | 28 | 16.1 | 25.7 | 0.00 | 0.00 | 0.00 | 31 | 1010.9 |
| 20260509162557 | 17 | 13 | 12.9 | 22.5 | 0.00 | 0.00 | 0.00 | 30 | 1011.0 |
| 20260509162057 | 18 | 336 | 14.5 | 22.5 | 0.00 | 0.00 | 0.00 | 32 | 1011.0 |
| 20260509161557 | 17 | 359 | 14.5 | 22.5 | 0.00 | 0.00 | 0.00 | 30 | 1011.1 |
| 20260509161059 | 17 | 355 | 12.9 | 22.5 | 0.00 | 0.00 | 0.00 | 32 | 1011.1 |
| 20260509160557 | 17 | 299 | 14.5 | 22.5 | 0.00 | 0.00 | 0.00 | 32 | 1011.1 |
| 20260509160055 | 17 | 3 | 11.3 | 22.5 | 0.00 | 0.00 | 0.00 | 33 | 1011.1 |
| 20260509155555 | 17 | 335 | 11.3 | 20.9 | 0.00 | 0.00 | 0.00 | 33 | 1011.1 |
| 20260509155054 | 17 | 3 | 14.5 | 25.7 | 0.00 | 0.00 | 0.00 | 34 | 1011.1 |
| 20260509154555 | 17 | 319 | 14.5 | 25.7 | 0.00 | 0.00 | 0.00 | 34 | 1011.2 |
| 20260509154051 | 17 | 334 | 12.9 | 24.1 | 0.00 | 0.00 | 0.00 | 34 | 1011.0 |
| 20260509153551 | 17 | 13 | 16.1 | 25.7 | 0.00 | 0.00 | 0.00 | 33 | 1011.1 |
| 20260509153100 | 17 | 25 | 11.3 | 24.1 | 0.00 | 0.00 | 0.00 | 36 | 1011.1 |
| 20260509152549 | 17 | 345 | 16.1 | 22.5 | 0.00 | 0.00 | 0.00 | 34 | 1011.0 |
| 20260509152050 | 17 | 345 | 12.9 | 22.5 | 0.00 | 0.00 | 0.00 | 35 | 1011.0 |
| 20260509151552 | 17 | 16 | 12.9 | 22.5 | 0.00 | 0.00 | 0.00 | 37 | 1011.0 |
| 20260509151047 | 17 | 355 | 14.5 | 24.1 | 0.00 | 0.00 | 0.00 | 39 | 1011.0 |
| 20260509150547 | 16 | 359 | 12.9 | 22.5 | 0.00 | 0.00 | 0.00 | 39 | 1011.0 |
| 20260509150048 | 16 | 324 | 12.9 | 22.5 | 0.00 | 0.00 | 0.00 | 39 | 1010.9 |
| 20260509145547 | 16 | 350 | 12.9 | 22.5 | 0.00 | 0.00 | 0.00 | 39 | 1011.0 |